Regional Weather Roundup
Issued by NWS

Home | Current Version | Previous Version | Graphics & Text | Print | Product List | Glossary On
Versions: 1 2 3 4 5 6 7 8 9 10 11 12 13 14 15 16 17 18 19 20 21 22 23 24 25 26 27 28 29 30 31 32 33 34 35 36 37 38 39 40 41 42 43 44 45 46 47 48 49 50
000
ASUS43 KTOP 061759
RWRKS

WEATHER ROUNDUP FOR KANSAS
NATIONAL WEATHER SERVICE GOODLAND KS
1200 PM CST FRI MAR 06 2015

NOTE:  "FAIR" INDICATES FEW OR NO CLOUDS BELOW 12,000 FEET WITH NO
SIGNIFICANT WEATHER AND/OR OBSTRUCTIONS TO VISIBILITY.

KSZ001>006-013>018-027>032-041>047-061900-
NORTHWEST KANSAS

CITY           SKY/WX    TMP DP  RH WIND       PRES   REMARKS
GOODLAND       SUNNY     55  13  18 NW22      30.30F
6HR MIN TEMP:  25; 6HR MAX TEMP:  56;

HAYS           FAIR      59  18  20 W14G20    30.30S
HILL CITY      FAIR      59  14  17 NW13G22   30.28F
6HR MIN TEMP:  22; 6HR MAX TEMP:  59;

RUSSELL        FAIR      57  19  22 SW13      30.27F
6HR MIN TEMP:  22; 6HR MAX TEMP:  57;

$$

KSZ061>065-074>080-084>089-061900-
SOUTHWEST KANSAS

CITY           SKY/WX    TMP DP  RH WIND       PRES   REMARKS
DODGE CITY     FAIR      56  17  21 W6        30.34S
6HR MIN TEMP:  25; 6HR MAX TEMP:  56;

ELKHART          N/A     55  26  32 E3          N/A
GARDEN CITY    FAIR      55  15  20 SW7       30.32F
6HR MIN TEMP:  21; 6HR MAX TEMP:  56;

GREAT BEND     FAIR      55  25  30 SW9       30.31F
LIBERAL        FAIR      50  30  46 CALM      30.37S
$$

KSZ066>073-081>083-090>101-061900-
SOUTHEAST KANSAS

CITY           SKY/WX    TMP DP  RH WIND       PRES   REMARKS
CHANUTE        FAIR      48  27  44 SW16      30.39F
6HR MIN TEMP:  26; 6HR MAX TEMP:  49;

COFFEYVILLE    FAIR      50  26  39 SW16      30.42F
6HR MIN TEMP:  25; 6HR MAX TEMP:  50;

HUTCHINSON     FAIR      56  29  35 SW12      30.33F
6HR MIN TEMP:  22; 6HR MAX TEMP:  56;

MEDICINE LODGE   N/A     53  27  36 SW9G18    30.35F
NEWTON         FAIR      48  30  49 SW13      30.35S
PARSONS        FAIR      49  27  42 SW15      30.42F
6HR MIN TEMP:  25; 6HR MAX TEMP:  49;

WICHITA INTL   FAIR      50  29  44 S13       30.37S
6HR MIN TEMP:  22; 6HR MAX TEMP:  50;

WICHITA JABRA  FAIR      49  28  44 SW14      30.36F
6HR MIN TEMP:  27; 6HR MAX TEMP:  49;

WICHITA MCCONL FAIR      50  29  44 S14       30.36F
WINFIELD       FAIR      50  29  44 SW15      30.41F
6HR MIN TEMP:  26; 6HR MAX TEMP:  50;

$$

KSZ007>012-019>026-033>040-048>060-102>105-061900-
NORTHEAST KANSAS

CITY           SKY/WX    TMP DP  RH WIND       PRES   REMARKS
CONCORDIA      FAIR      56  19  23 W13       30.27F
6HR MIN TEMP:  28; 6HR MAX TEMP:  56;

EMPORIA        FAIR      52  28  39 SW15G21   30.32F
6HR MIN TEMP:  28; 6HR MAX TEMP:  52;

LAWRENCE       FAIR      51  23  33 W13       30.31F
6HR MIN TEMP:  29; 6HR MAX TEMP:  52;

MANHATTAN      FAIR      52  25  35 SW12      30.30F
6HR MIN TEMP:  27; 6HR MAX TEMP:  52;

OLATHE IND     FAIR      49  26  41 SW15      30.32F
6HR MIN TEMP:  25; 6HR MAX TEMP:  49;

OLATHE EXE     FAIR      48  25  40 SW16      30.31F
6HR MIN TEMP:  26; 6HR MAX TEMP:  48;

SALINA         FAIR      57  20  23 SW7       30.31F
6HR MIN TEMP:  22; 6HR MAX TEMP:  58;

TOPEKA BILLARD FAIR      53  23  31 W10G17    30.30F
6HR MIN TEMP:  30; 6HR MAX TEMP:  54;

TOPEKA FORBES  FAIR      53  24  32 SW12      30.30F
6HR MIN TEMP:  28; 6HR MAX TEMP:  54;

$$


USA.gov is the U.S. government's official web portal to all federal, state and local government web resources and services.